STARLINK-35506

Last updated on Sun Dec 07 2025 00:02:05 GMT+0000 (Coordinated Universal Time)

1 66324U 25253F 25338.17623259 .00011470 00000+0 20092-3 0 9992 2 66324 43.0012 34.8030 0000873 273.2034 86.8726 15.50596968 5602
UTC large
Height (km)
Speed (km/s)
/
Latitude / Longitude
Inclination (degrees)
Orbital Period (minutes)
Azimuth
Elevation
Range (km)
Doppler Factor

Next 0 passes for location: London (51.5072 / 0.1276)

Sorry there are no passes over London.